Time,TemperatureF,DewpointF,PressureIn,WindDirection,WindDirectionDegrees,WindSpeedMPH,WindSpeedGustMPH,Humidity,HourlyPrecipIn,Conditions,Clouds,dailyrainin,SoftwareType,DateUTC
2013-06-27 00:02:00,71.0,67.0,29.68,SSE,153,0.0,0.0,86,0.00,,,0.00,weatherlink.com 1.10,2013-06-27 05:02:00,
2013-06-27 00:17:00,70.8,67.0,29.68,SSE,152,0.0,0.0,86,0.00,,,0.00,weatherlink.com 1.10,2013-06-27 05:17:00,
2013-06-27 00:32:00,70.1,67.0,29.68,SSE,152,0.0,0.0,88,0.00,,,0.00,weatherlink.com 1.10,2013-06-27 05:32:00,
2013-06-27 00:47:00,69.6,66.0,29.68,SSE,152,0.0,0.0,89,0.00,,,0.00,weatherlink.com 1.10,2013-06-27 05:47:00,
2013-06-27 01:00:00,70.2,66.8,29.68,North,0,0.0,0.0,89,0.00,,,0.00,Cumulus v1.9.3,2013-06-27 06:00:00,
2013-06-27 01:02:00,69.3,66.0,29.68,SSE,152,0.0,0.0,89,0.00,,,0.00,weatherlink.com 1.10,2013-06-27 06:02:00,
2013-06-27 01:17:00,69.3,66.0,29.68,SSE,152,0.0,0.0,90,0.00,,,0.00,weatherlink.com 1.10,2013-06-27 06:17:00,
2013-06-27 01:32:00,69.3,66.0,29.68,SSE,152,0.0,0.0,90,0.00,,,0.00,weatherlink.com 1.10,2013-06-27 06:32:00,
2013-06-27 01:47:00,69.2,66.0,29.67,SSE,152,0.0,0.0,90,0.00,,,0.00,weatherlink.com 1.10,2013-06-27 06:47:00,
2013-06-27 02:02:00,68.9,66.0,29.67,SSE,152,0.0,0.0,91,0.00,,,0.00,weatherlink.com 1.10,2013-06-27 07:02:00,
2013-06-27 02:17:00,68.3,66.0,29.67,SSE,152,0.0,0.0,91,0.00,,,0.00,weatherlink.com 1.10,2013-06-27 07:17:00,
2013-06-27 02:32:00,68.1,66.0,29.67,SSE,152,0.0,0.0,92,0.00,,,0.00,weatherlink.com 1.10,2013-06-27 07:32:00,
2013-06-27 02:47:00,68.0,66.0,29.67,SSE,152,0.0,0.0,92,0.00,,,0.00,weatherlink.com 1.10,2013-06-27 07:47:00,
2013-06-27 03:02:00,67.8,66.0,29.67,SSE,152,0.0,0.0,92,0.00,,,0.00,weatherlink.com 1.10,2013-06-27 08:02:00,
2013-06-27 03:17:00,68.1,65.0,29.67,SSE,152,0.0,0.0,91,0.00,,,0.00,weatherlink.com 1.10,2013-06-27 08:17:00,
2013-06-27 03:32:00,68.6,66.0,29.67,SSE,152,0.0,2.0,91,0.00,,,0.00,weatherlink.com 1.10,2013-06-27 08:32:00,
2013-06-27 03:47:00,68.4,66.0,29.67,SSE,152,0.0,0.0,91,0.00,,,0.00,weatherlink.com 1.10,2013-06-27 08:47:00,
2013-06-27 04:00:00,68.3,65.3,29.67,North,0,0.0,2.0,90,0.00,,,0.00,Cumulus v1.9.3,2013-06-27 09:00:00,
2013-06-27 04:02:00,68.6,66.0,29.67,SSE,152,0.0,1.0,90,0.00,,,0.00,weatherlink.com 1.10,2013-06-27 09:02:00,
2013-06-27 04:17:00,69.1,66.0,29.67,SSE,152,0.0,1.0,88,0.00,,,0.00,weatherlink.com 1.10,2013-06-27 09:17:00,
2013-06-27 04:32:00,70.1,66.0,29.66,South,174,0.0,4.0,86,0.00,,,0.00,weatherlink.com 1.10,2013-06-27 09:32:00,
2013-06-27 04:47:00,70.1,65.0,29.66,SSE,159,2.0,2.0,85,0.00,,,0.00,weatherlink.com 1.10,2013-06-27 09:47:00,
2013-06-27 05:02:00,69.8,66.0,29.67,SE,141,1.0,4.0,86,0.00,,,0.00,weatherlink.com 1.10,2013-06-27 10:02:00,
2013-06-27 05:17:00,69.5,66.0,29.67,SE,131,2.0,6.0,87,0.00,,,0.00,weatherlink.com 1.10,2013-06-27 10:17:00,
2013-06-27 05:32:00,69.1,66.0,29.67,SE,142,0.0,5.0,88,0.00,,,0.00,weatherlink.com 1.10,2013-06-27 10:32:00,
2013-06-27 05:47:00,68.7,65.0,29.67,SSE,162,0.0,3.0,88,0.00,,,0.00,weatherlink.com 1.10,2013-06-27 10:47:00,
2013-06-27 06:00:00,69.1,65.7,29.67,SE,135,1.0,7.0,89,0.00,,,0.00,Cumulus v1.9.3,2013-06-27 11:00:00,
2013-06-27 06:02:00,68.4,65.0,29.67,SSE,147,0.0,4.0,89,0.00,,,0.00,weatherlink.com 1.10,2013-06-27 11:02:00,
2013-06-27 06:17:00,68.1,65.0,29.67,SSE,150,1.0,3.0,90,0.00,,,0.00,weatherlink.com 1.10,2013-06-27 11:17:00,
2013-06-27 06:32:00,68.3,65.0,29.68,SE,132,2.0,4.0,90,0.00,,,0.00,weatherlink.com 1.10,2013-06-27 11:32:00,
2013-06-27 06:47:00,68.7,65.0,29.68,SSE,148,2.0,6.0,89,0.00,,,0.00,weatherlink.com 1.10,2013-06-27 11:47:00,
2013-06-27 07:00:00,68.5,64.8,29.68,SSE,156,1.0,6.0,88,0.00,,,0.00,Cumulus v1.9.3,2013-06-27 12:00:00,
2013-06-27 07:02:00,69.4,66.0,29.68,SE,134,2.0,5.0,88,0.00,,,0.00,weatherlink.com 1.10,2013-06-27 12:02:00,
2013-06-27 07:17:00,70.4,66.0,29.68,SE,146,1.0,5.0,86,0.00,,,0.00,weatherlink.com 1.10,2013-06-27 12:17:00,
2013-06-27 07:32:00,71.3,67.0,29.69,SSE,152,2.0,7.0,85,0.00,,,0.00,weatherlink.com 1.10,2013-06-27 12:32:00,
2013-06-27 07:47:00,72.4,67.0,29.69,SE,136,2.0,8.0,83,0.00,,,0.00,weatherlink.com 1.10,2013-06-27 12:47:00,
2013-06-27 08:00:00,71.2,65.4,29.69,SE,135,2.0,9.0,82,0.00,,,0.00,Cumulus v1.9.3,2013-06-27 13:00:00,
2013-06-27 08:02:00,72.9,67.0,29.69,SE,135,3.0,7.0,81,0.00,,,0.00,weatherlink.com 1.10,2013-06-27 13:02:00,
2013-06-27 08:17:00,74.0,67.0,29.69,ESE,113,6.0,6.0,78,0.00,,,0.00,weatherlink.com 1.10,2013-06-27 13:17:00,
2013-06-27 08:32:00,74.8,67.0,29.69,SE,141,1.0,7.0,76,0.00,,,0.00,weatherlink.com 1.10,2013-06-27 13:32:00,
2013-06-27 08:47:00,75.4,67.0,29.69,South,169,1.0,7.0,76,0.00,,,0.00,weatherlink.com 1.10,2013-06-27 13:47:00,
2013-06-27 09:00:00,74.5,65.3,29.69,SE,135,3.0,10.0,73,0.00,,,0.00,Cumulus v1.9.3,2013-06-27 14:00:00,
2013-06-27 09:03:00,75.9,66.0,29.69,SE,138,4.0,10.0,72,0.00,,,0.00,weatherlink.com 1.10,2013-06-27 14:03:00,
2013-06-27 09:18:00,76.7,67.0,29.69,SSE,155,4.0,10.0,71,0.00,,,0.00,weatherlink.com 1.10,2013-06-27 14:18:00,
2013-06-27 09:33:00,77.2,66.0,29.69,SE,131,4.0,8.0,69,0.00,,,0.00,weatherlink.com 1.10,2013-06-27 14:33:00,
2013-06-27 09:48:00,77.7,65.0,29.69,ESE,113,6.0,11.0,64,0.00,,,0.00,weatherlink.com 1.10,2013-06-27 14:48:00,
2013-06-27 10:00:00,77.1,63.1,29.69,SE,135,3.0,12.0,62,0.00,,,0.00,Cumulus v1.9.3,2013-06-27 15:00:00,
2013-06-27 10:03:00,78.3,65.0,29.69,SE,139,3.0,12.0,63,0.00,,,0.00,weatherlink.com 1.10,2013-06-27 15:03:00,
2013-06-27 10:18:00,78.9,62.0,29.68,SSE,163,1.0,11.0,57,0.00,,,0.00,weatherlink.com 1.10,2013-06-27 15:18:00,
2013-06-27 10:33:00,80.1,62.0,29.68,SE,139,3.0,10.0,54,0.00,,,0.00,weatherlink.com 1.10,2013-06-27 15:33:00,
2013-06-27 10:48:00,80.4,61.0,29.68,ESE,118,7.0,11.0,51,0.00,,,0.00,weatherlink.com 1.10,2013-06-27 15:48:00,
2013-06-27 11:00:00,79.7,57.7,29.68,SE,135,4.0,15.0,47,0.00,,,0.00,Cumulus v1.9.3,2013-06-27 16:00:00,
2013-06-27 11:03:00,80.7,58.0,29.68,ESE,110,9.0,10.0,46,0.00,,,0.00,weatherlink.com 1.10,2013-06-27 16:03:00,
2013-06-27 11:18:00,81.6,60.0,29.68,SSE,158,1.0,11.0,48,0.00,,,0.00,weatherlink.com 1.10,2013-06-27 16:18:00,
2013-06-27 11:33:00,81.6,58.0,29.69,ESE,122,8.0,14.0,44,0.00,,,0.00,weatherlink.com 1.10,2013-06-27 16:33:00,
2013-06-27 11:48:00,81.9,58.0,29.69,SSE,147,2.0,11.0,44,0.00,,,0.00,weatherlink.com 1.10,2013-06-27 16:48:00,
2013-06-27 12:00:00,81.5,58.1,29.69,SE,135,5.0,14.0,45,0.00,,,0.00,Cumulus v1.9.3,2013-06-27 17:00:00,
2013-06-27 12:03:00,81.8,58.0,29.69,ESE,113,4.0,13.0,45,0.00,,,0.00,weatherlink.com 1.10,2013-06-27 17:03:00,
2013-06-27 12:18:00,81.6,58.0,29.69,SE,128,5.0,17.0,44,0.00,,,0.00,weatherlink.com 1.10,2013-06-27 17:18:00,
2013-06-27 12:33:00,82.0,59.0,29.69,SSE,148,7.0,14.0,46,0.00,,,0.00,weatherlink.com 1.10,2013-06-27 17:33:00,
2013-06-27 12:48:00,82.1,60.0,29.70,ESE,103,10.0,16.0,47,0.00,,,0.00,weatherlink.com 1.10,2013-06-27 17:48:00,
2013-06-27 13:03:00,82.4,60.0,29.70,SE,142,5.0,12.0,46,0.00,,,0.00,weatherlink.com 1.10,2013-06-27 18:03:00,
2013-06-27 13:18:00,82.4,60.0,29.70,SSE,160,2.0,13.0,47,0.00,,,0.00,weatherlink.com 1.10,2013-06-27 18:18:00,
2013-06-27 13:33:00,82.4,59.0,29.70,ESE,108,7.0,16.0,45,0.00,,,0.00,weatherlink.com 1.10,2013-06-27 18:33:00,
2013-06-27 13:48:00,82.5,57.0,29.70,SE,124,9.0,13.0,42,0.00,,,0.00,weatherlink.com 1.10,2013-06-27 18:48:00,
2013-06-27 14:03:00,83.1,58.0,29.70,SE,128,4.0,14.0,43,0.00,,,0.00,weatherlink.com 1.10,2013-06-27 19:03:00,
2013-06-27 14:18:00,83.1,59.0,29.70,East,86,9.0,13.0,44,0.00,,,0.00,weatherlink.com 1.10,2013-06-27 19:18:00,
2013-06-27 14:33:00,83.2,56.0,29.70,SE,144,3.0,16.0,40,0.00,,,0.00,weatherlink.com 1.10,2013-06-27 19:33:00,
2013-06-27 14:48:00,83.4,57.0,29.71,South,173,2.0,17.0,41,0.00,,,0.00,weatherlink.com 1.10,2013-06-27 19:48:00,
2013-06-27 15:03:00,83.5,59.0,29.70,SSW,211,2.0,11.0,44,0.00,,,0.00,weatherlink.com 1.10,2013-06-27 20:03:00,
2013-06-27 15:18:00,83.6,57.0,29.70,SSW,210,8.0,12.0,41,0.00,,,0.00,weatherlink.com 1.10,2013-06-27 20:18:00,
2013-06-27 15:33:00,83.2,58.0,29.71,SE,146,6.0,9.0,43,0.00,,,0.00,weatherlink.com 1.10,2013-06-27 20:33:00,
2013-06-27 15:48:00,83.4,58.0,29.71,ENE,60,9.0,9.0,42,0.00,,,0.00,weatherlink.com 1.10,2013-06-27 20:48:00,
2013-06-27 16:19:00,83.7,58.0,29.71,WSW,248,6.0,14.0,41,0.00,,,0.00,weatherlink.com 1.10,2013-06-27 21:19:00,
2013-06-27 16:34:00,83.5,57.0,29.71,SSE,160,6.0,13.0,41,0.00,,,0.00,weatherlink.com 1.10,2013-06-27 21:34:00,
2013-06-27 16:49:00,83.2,58.0,29.71,South,181,4.0,16.0,43,0.00,,,0.00,weatherlink.com 1.10,2013-06-27 21:49:00,
2013-06-27 17:04:00,83.7,60.0,29.70,SSE,158,3.0,12.0,44,0.00,,,0.00,weatherlink.com 1.10,2013-06-27 22:04:00,
2013-06-27 17:34:00,84.1,60.0,29.70,SSE,155,0.0,12.0,44,0.00,,,0.00,weatherlink.com 1.10,2013-06-27 22:34:00,
2013-06-27 17:49:00,83.7,58.0,29.70,SE,133,6.0,13.0,42,0.00,,,0.00,weatherlink.com 1.10,2013-06-27 22:49:00,
2013-06-27 18:34:00,81.6,60.0,29.69,SSE,160,0.0,9.0,48,0.00,,,0.00,weatherlink.com 1.10,2013-06-27 23:34:00,
2013-06-27 18:49:00,82.7,60.0,29.69,SE,138,6.0,9.0,46,0.00,,,0.00,weatherlink.com 1.10,2013-06-27 23:49:00,
2013-06-27 19:18:00,82.8,60.5,29.68,SE,136,3.0,5.0,47,0.00,,,0.00,Cumulus v1.9.3,2013-06-28 00:18:00,
2013-06-27 19:19:00,82.8,59.9,29.68,SE,135,3.0,5.0,46,0.00,,,0.00,Cumulus v1.9.3,2013-06-28 00:19:00,
2013-06-27 19:20:00,82.8,59.9,29.68,SE,138,3.0,5.0,46,0.00,,,0.00,Cumulus v1.9.3,2013-06-28 00:20:00,
2013-06-27 19:24:00,82.8,60.5,29.68,SE,134,3.0,6.0,47,0.00,,,0.00,Cumulus v1.9.3,2013-06-28 00:24:00,
2013-06-27 19:26:00,82.8,60.5,29.68,SE,134,3.0,6.0,47,0.00,,,0.00,Cumulus v1.9.3,2013-06-28 00:26:00,
2013-06-27 19:27:00,82.8,61.1,29.68,SE,134,3.0,6.0,48,0.00,,,0.00,Cumulus v1.9.3,2013-06-28 00:27:00,
2013-06-27 19:29:00,82.8,61.1,29.68,SE,135,3.0,6.0,48,0.00,,,0.00,Cumulus v1.9.3,2013-06-28 00:29:00,
2013-06-27 19:32:00,82.9,60.6,29.68,SE,142,3.0,5.0,47,0.00,,,0.00,Cumulus v1.9.3,2013-06-28 00:32:00,
2013-06-27 19:33:00,83.0,60.7,29.68,SE,143,2.0,5.0,47,0.00,,,0.00,Cumulus v1.9.3,2013-06-28 00:33:00,
2013-06-27 19:35:00,83.1,61.4,29.68,SSE,147,2.0,5.0,48,0.00,,,0.00,Cumulus v1.9.3,2013-06-28 00:35:00,
2013-06-27 19:38:00,83.4,61.7,29.67,SSE,149,2.0,4.0,48,0.00,,,0.00,Cumulus v1.9.3,2013-06-28 00:38:00,
2013-06-27 19:40:00,83.6,61.8,29.67,SSE,148,2.0,4.0,48,0.00,,,0.00,Cumulus v1.9.3,2013-06-28 00:40:00,
2013-06-27 19:43:00,83.8,62.0,29.67,SE,144,1.0,4.0,48,0.00,,,0.00,Cumulus v1.9.3,2013-06-28 00:43:00,
2013-06-27 19:44:00,83.9,62.1,29.67,SE,146,1.0,3.0,48,0.00,,,0.00,Cumulus v1.9.3,2013-06-28 00:44:00,
2013-06-27 19:45:00,83.8,61.4,29.67,SE,144,1.0,7.0,47,0.00,,,0.00,Cumulus v1.9.3,2013-06-28 00:45:00,
2013-06-27 19:48:00,83.6,61.8,29.67,SE,142,1.0,7.0,48,0.00,,,0.00,Cumulus v1.9.3,2013-06-28 00:48:00,
2013-06-27 19:49:00,83.5,61.7,29.67,SE,138,1.0,7.0,48,0.00,,,0.00,Cumulus v1.9.3,2013-06-28 00:49:00,
2013-06-27 19:51:00,83.3,61.0,29.67,SE,140,1.0,7.0,47,0.00,,,0.00,Cumulus v1.9.3,2013-06-28 00:51:00,
2013-06-27 19:52:00,83.3,61.6,29.67,SE,140,1.0,7.0,48,0.00,,,0.00,Cumulus v1.9.3,2013-06-28 00:52:00,
2013-06-27 19:54:00,83.1,62.0,29.67,SE,140,1.0,7.0,49,0.00,,,0.00,Cumulus v1.9.3,2013-06-28 00:54:00,
2013-06-27 19:55:00,83.1,62.0,29.67,SE,139,1.0,7.0,49,0.00,,,0.00,Cumulus v1.9.3,2013-06-28 00:55:00,
2013-06-27 19:56:00,83.0,61.9,29.67,SE,139,2.0,5.0,49,0.00,,,0.00,Cumulus v1.9.3,2013-06-28 00:56:00,
2013-06-27 20:11:00,82.2,62.0,29.67,SSE,167,1.0,5.0,50,0.00,,,0.00,weatherlink.com 1.10,2013-06-28 01:11:00,
2013-06-27 20:26:00,81.2,61.0,29.67,SE,133,5.0,5.0,51,0.00,,,0.00,weatherlink.com 1.10,2013-06-28 01:26:00,
2013-06-27 20:41:00,79.8,59.0,29.67,SE,136,3.0,8.0,50,0.00,,,0.00,weatherlink.com 1.10,2013-06-28 01:41:00,
2013-06-27 21:11:00,78.4,56.0,29.67,South,179,3.0,7.0,47,0.00,,,0.00,weatherlink.com 1.10,2013-06-28 02:11:00,
2013-06-27 21:26:00,77.7,56.0,29.67,SSE,148,1.0,6.0,48,0.00,,,0.00,weatherlink.com 1.10,2013-06-28 02:26:00,
2013-06-27 21:56:00,76.1,57.0,29.68,SSE,160,0.0,4.0,51,0.00,,,0.00,weatherlink.com 1.10,2013-06-28 02:56:00,
2013-06-27 22:26:00,74.6,57.0,29.68,South,170,1.0,3.0,54,0.00,,,0.00,weatherlink.com 1.10,2013-06-28 03:26:00,
2013-06-27 22:41:00,74.0,57.0,29.68,SSE,155,0.0,1.0,56,0.00,,,0.00,weatherlink.com 1.10,2013-06-28 03:41:00,
2013-06-27 22:56:00,73.1,57.0,29.68,SSE,158,0.0,1.0,58,0.00,,,0.00,weatherlink.com 1.10,2013-06-28 03:56:00,
2013-06-27 23:11:00,72.3,58.0,29.68,SSE,155,0.0,4.0,60,0.00,,,0.00,weatherlink.com 1.10,2013-06-28 04:11:00,
2013-06-27 23:26:00,72.8,57.0,29.68,SW,225,2.0,8.0,59,0.00,,,0.00,weatherlink.com 1.10,2013-06-28 04:26:00,
2013-06-27 23:41:00,73.6,58.0,29.68,SSE,163,2.0,10.0,58,0.00,,,0.00,weatherlink.com 1.10,2013-06-28 04:41:00,
2013-06-27 23:56:00,73.3,58.0,29.69,SSE,165,2.0,7.0,59,0.00,,,0.00,weatherlink.com 1.10,2013-06-28 04:56:00,